Flag for Canada Weather past 2 weeks in Taloyoak, Nunavut Territory, Canada

Now
-6 °F

Light snow. Ice fog.


Feels Like: -21 °F
Forecast: N/A
Wind: 8 mph from Southeast

Location: Spence Bay Airport

Current Time: Feb 27, 2015 at 3:08:29 PM

Latest Report: Feb 27, 2015 at 2:00 PM


Visibility: 1 mi

Pressure: 29.26 "Hg

Humidity: 77%

Dew point: -11 °F

Location of TaloyoakLocation

Historic Weather in Taloyoak — Graph

°F

Taloyoak temperature yesterday

Maximum temperature yesterday: -24 °F (at 1:00 PM)
Minimum temperature yesterday: -31 °F (at 3:00 AM)
Average temperature yesterday: -29 °F

Past Weeks' High & Low Weather Summary

 TemperatureHumidityPressure
High-8 °F (Feb 27, 1:00 PM)77% (Feb 27, 12:00 PM)30.60 "Hg (Feb 27, 12:00 PM)
Low-42 °F (Feb 13, 12:00 AM)58% (Feb 13, 7:00 AM)29.28 "Hg (Feb 27, 1:00 PM)
Average-29 °F68%30.08 "Hg
* Reported Feb 12 1:00 PM — Feb 27 1:00 PM, Taloyoak, Weather by CustomWeather, © 2015

Note: Actual official high and low records may vary slightly from our data, if they occured in-between our weather recording intervals... More about our weather records

Advertising

Taloyoak weather history for previous 24 hours

 ConditionsComfort  
Time TempWeatherWind HumidityBarometerVisibility
1:00 PM
Fri, Feb 27
-8 °FLight snow. Ice fog.16 mph77%29.28 "Hg1 mi
12:00 PM-9 °FLight snow. Partly sunny.18 mph77%29.33 "Hg1 mi
11:00 AM-11 °FLight snow. Partly sunny.23 mph76%29.36 "Hg1 mi
10:00 AM-13 °FLight snow. Partly sunny.22 mph76%29.41 "Hg1 mi
9:47 AM-15 °FLight snow. Ice fog.18 mph76%29.43 "Hg1 mi
9:00 AM-17 °FLight snow. Fog.16 mph76%29.46 "Hg1 mi
8:00 AM-17 °FLight snow. Broken clouds.20 mph69%29.49 "Hg1 mi
7:00 AM-18 °FLight snow. Broken clouds.21 mph75%29.54 "Hg2 mi
6:00 AM-20 °FLight snow. Broken clouds.17 mph75%29.59 "Hg4 mi
5:00 AM-20 °FLight snow. Partly cloudy.17 mph68%29.63 "Hg10 mi
4:00 AM-22 °FLight snow. Partly cloudy.16 mph75%29.66 "Hg10 mi
3:00 AM-22 °FLight snow. Partly cloudy.16 mph75%29.70 "Hg10 mi
2:00 AM-22 °FLight snow. Partly cloudy.14 mph68%29.72 "Hg12 mi
1:00 AM-24 °FLight snow. Passing clouds.10 mph75%29.74 "Hg15 mi
12:00 AM-26 °FLight snow. Passing clouds.10 mph75%29.77 "Hg15 mi
11:00 PM
Thu, Feb 26
-26 °FLight snow. Passing clouds.8 mph75%29.78 "Hg15 mi
10:00 PM-26 °FLight snow. Passing clouds.7 mph67%29.80 "Hg15 mi
9:00 PM-29 °FSnow flurries. Passing clouds.3 mph74%29.82 "Hg15 mi
8:00 PM-31 °FSnow flurries. Passing clouds.2 mph67%29.83 "Hg15 mi
7:00 PM-29 °FSnow flurries. Passing clouds.2 mph67%29.86 "Hg15 mi
6:00 PM-31 °FSnow flurries. Passing clouds.No wind67%29.86 "Hg15 mi
5:00 PM-29 °FSnow flurries. Passing clouds.3 mph74%29.87 "Hg15 mi
4:00 PM-31 °FSnow flurries. Passing clouds.5 mph67%29.87 "Hg15 mi
3:00 PM-27 °FSnow flurries. Scattered clouds.2 mph74%29.87 "Hg15 mi
Weather by CustomWeather, © 2015

See weather overviewHow to use our weather pages